DO3HUM-5 Weather Reports


Display with metric or nautical units.
time (UTC)temp
F
wind
direction
speed
MPH
gust
MPH
rain 1hr
in
rain 24hr
in
rain mn
in
humidity
%
barometer
mb
20260505184613 61 0.0 0.0 0.00 0.06 0.05 79 1013.3
20260505183610 62 0 0.0 4.0 0.00 0.06 0.05 78 1013.4
20260505182606 62 0 0.0 2.0 0.00 0.06 0.05 77 1013.5
20260505181605 63 326 0.0 2.0 0.00 0.06 0.05 76 1013.6
20260505180600 63 338 1.0 4.0 0.00 0.06 0.05 75 1013.7
20260505175557 64 354 1.0 2.0 0.00 0.06 0.05 74 1013.6
20260505174554 64 0 1.0 2.0 0.00 0.06 0.05 74 1013.5
20260505173551 64 343 0.0 2.0 0.00 0.06 0.05 72 1013.6
20260505172548 65 335 0.0 2.0 0.00 0.06 0.05 69 1013.5
20260505171545 66 0.0 2.0 0.00 0.06 0.05 68 1013.5
20260505170544 66 91 1.0 2.0 0.00 0.06 0.05 67 1013.6
20260505165541 66 82 1.0 2.0 0.00 0.06 0.05 67 1013.7
20260505164537 67 83 0.0 4.0 0.00 0.06 0.05 65 1013.8
20260505163534 67 107 1.0 4.0 0.00 0.06 0.05 65 1013.6
20260505162533 67 81 1.0 2.0 0.00 0.06 0.05 67 1013.8
20260505161530 67 75 2.0 4.0 0.00 0.06 0.05 65 1013.8
20260505160526 67 93 1.0 6.0 0.00 0.06 0.05 65 1013.8
20260505152615 68 71 2.0 4.0 0.00 0.06 0.05 65 1014.4
20260505151612 68 30 2.0 4.0 0.00 0.06 0.05 64 1014.3
20260505150609 68 90 1.0 6.0 0.00 0.06 0.05 64 1014.5
20260505140552 66 78 1.0 2.0 0.00 0.06 0.05 68 1015.1
20260505124530 67 342 1.0 4.0 0.00 0.06 0.05 65 1015.7
20260505123527 68 102 1.0 4.0 0.00 0.06 0.05 65 1015.6
20260505122524 67 113 0.0 2.0 0.00 0.06 0.05 68 1015.7
20260505121522 68 329 1.0 4.0 0.00 0.06 0.05 66 1015.8
20260505120520 67 81 1.0 4.0 0.00 0.06 0.05 68 1015.8
20260505115517 66 338 1.0 2.0 0.00 0.06 0.05 71 1015.9
20260505114614 65 315 0.0 2.0 0.00 0.06 0.05 72 1016.0
20260505113612 64 334 1.0 4.0 0.00 0.06 0.05 73 1016.0
20260505112608 64 340 2.0 4.0 0.00 0.06 0.05 73 1016.2
20260505111606 65 302 1.0 4.0 0.00 0.06 0.05 71 1016.3
20260505110604 65 0 0.0 2.0 0.00 0.06 0.05 73 1016.4
20260505101549 63 0 0.0 2.0 0.00 0.06 0.05 76 1016.8
20260505100546 64 0.0 2.0 0.00 0.06 0.05 76 1016.7